Location: Добрич
(43.6638°N, 27.9002°E)
Time: 05:45:02
(UTC+03:00)

ISS - Pass Details

Date: 21 April 2026
Orbit: 414 x 424 km, 51.6° (Epoch: 15 May)

Event Time Altitude Azimuth Distance (km) Brightness Sun altitude
Exits shadow 04:09:38 22° 134° (SE) 958 -1.9 -20.7°
Drops below altitude 10° 04:12:16 10° 82° (E) 1,500 -0.2 -20.4°
Sets 04:14:40 0° 67° (ENE) 2,371 1.4 -20.1°
